Location: Unspecified
(0.0000°N, 0.0000°E)
Time: 16:16:16
(UTC+00:00)

S-56A Canister/Altair - Pass Details

Date: 19 November 2019
Orbit: 633 x 2500 km, 38.9° (Epoch: 12 December)

Event Time Altitude Azimuth Distance (km) Brightness Sun altitude
Rises 15:05:31 0° 251° (WSW) 6,133 13.1 37.3°
Reaches altitude 10° 15:10:26 10° 260° (W) 5,003 12.9 36.1°
Maximum altitude 15:21:56 31° 316° (NW) 3,093 11.1 33.5°
Drops below altitude 10° 15:30:51 10° 14° (NNE) 3,816 10.8 31.5°
Sets 15:34:04 0° 25° (NNE) 4,527 11.1 30.7°
